Weather History for Trinidad, CO

Change the Weather History Date:

Saturday, September 7, 2013

  Actual Average Record
Temperature  
Mean Temperature 76 °F 68 °F  
Max Temperature 92 °F 83 °F 95 °F (1971)
Min Temperature 59 °F 52 °F 41 °F (1970)
Degree Days  
Heating Degree Days 0 1  
Month to date heating degree days 0 7  
Since 1 July heating degree days 5 17  
Cooling Degree Days 11 4  
Month to date cooling degree days 77 31  
Year to date cooling degree days 1003 673  
Growing Degree Days 26 (Base 50)    
Moisture  
Dew Point 41 °F    
Average Humidity 32    
Maximum Humidity 51    
Minimum Humidity 13    
Precipitation  
Precipitation 0.00 in 0.05 in 0.65 in (1990)
Month to date precipitation 0.61 0.36  
Year to date precipitation 7.92 10.82  
Sea Level Pressure  
Sea Level Pressure 29.90 in    
Wind  
Wind Speed 10 mph (SSW)    
Max Wind Speed 18 mph    
Max Gust Speed 26 mph    
Visibility 10 miles    
Events      
T = Trace of Precipitation, MM = Missing Value Source: NWS Daily Summary

Daily Weather History Graph

Daily Weather History Graph

Search for Another Location

Airport:

Trip Planner

Search our weather history database for the weather conditions in past years. The results will help you decide how hot, cold, wet, or windy it might be!

Date:

Astronomy

Sep. 07, 2013 Rise Set
Actual Time 6:33 AM MDT 7:16 PM MDT
Civil Twilight 6:06 AM MDT 7:43 PM MDT
Nautical Twilight 5:35 AM MDT 8:14 PM MDT
Astronomical Twilight 5:03 AM MDT 8:46 PM MDT
Moon 8:45 AM MDT (9/7) 8:21 PM MDT (9/7)
Length of Visible Light 13h 36m
Length of Day
12h 43m
Waxing Crescent, 5% of the Moon is Illuminated
Sep 7
Waxing Crescent
Sep 12
First Quarter
Sep 19
Full
Sep 26
Last Quarter
Oct 4
New

Hourly Weather History & Observations

Time (MDT) Temp. Dew Point Humidity Pressure Visibility Wind Dir Wind Speed Gust Speed Precip Events Conditions
12:54 AM 71.1 °F 39.9 °F 32% 29.90 in 10.0 mi WSW 10.4 mph - N/A   Clear
1:54 AM 69.1 °F 42.1 °F 38% 29.90 in 10.0 mi WSW 12.7 mph - N/A   Clear
2:54 AM 69.1 °F 42.1 °F 38% 29.90 in 10.0 mi WSW 15.0 mph - N/A   Clear
3:54 AM 66.9 °F 42.1 °F 40% 29.90 in 10.0 mi WSW 13.8 mph - N/A   Clear
4:54 AM 69.1 °F 41.0 °F 36% 29.90 in 10.0 mi WNW 12.7 mph - N/A   Clear
5:54 AM 63.0 °F 42.1 °F 46% 29.95 in 10.0 mi West 10.4 mph - N/A   Clear
6:54 AM 61.0 °F 42.1 °F 50% 29.96 in 10.0 mi WSW 11.5 mph - N/A   Clear
7:54 AM 68.0 °F 42.1 °F 39% 29.97 in 10.0 mi WSW 10.4 mph - N/A   Clear
8:54 AM 73.9 °F 43.0 °F 33% 29.96 in 10.0 mi SW 8.1 mph - N/A   Clear
9:54 AM 79.0 °F 42.1 °F 27% 29.97 in 10.0 mi Variable 4.6 mph - N/A   Clear
10:54 AM 82.9 °F 41.0 °F 23% 29.94 in 10.0 mi SE 6.9 mph - N/A   Clear
11:54 AM 86.0 °F 43.0 °F 22% 29.93 in 10.0 mi SSE 5.8 mph - N/A   Clear
12:54 PM 90.0 °F 39.9 °F 17% 29.90 in 10.0 mi SSE 9.2 mph 16.1 mph N/A   Clear
1:54 PM 91.0 °F 37.9 °F 15% 29.88 in 10.0 mi South 16.1 mph 19.6 mph N/A   Clear
2:54 PM 91.0 °F 37.0 °F 15% 29.85 in 10.0 mi SSE 12.7 mph 20.7 mph N/A   Clear
3:54 PM 91.0 °F 34.0 °F 13% 29.84 in 10.0 mi South 5.8 mph - N/A   Clear
4:54 PM 90.0 °F 36.0 °F 15% 29.82 in 10.0 mi SSE 13.8 mph - N/A   Clear
5:54 PM 88.0 °F 39.9 °F 18% 29.84 in 10.0 mi South 15.0 mph 19.6 mph N/A   Clear
6:54 PM 84.0 °F 42.1 °F 23% 29.87 in 10.0 mi South 12.7 mph - N/A   Clear
7:54 PM 77.0 °F 42.1 °F 29% 29.88 in 10.0 mi SSE 10.4 mph - N/A   Clear
8:54 PM 75.9 °F 41.0 °F 29% 29.88 in 10.0 mi SSE 11.5 mph - N/A   Clear
9:54 PM 78.1 °F 42.1 °F 28% 29.88 in 10.0 mi SW 6.9 mph - N/A   Clear
10:54 PM 72.0 °F 44.1 °F 37% 29.89 in 10.0 mi SSW 3.5 mph - N/A   Clear
11:54 PM 70.0 °F 44.1 °F 39% 29.89 in 10.0 mi Calm Calm - N/A   Clear